[[{"header":{"parameterUnit":"m.s-1","parameterCategory":1,"la1":30.2991,"la2":30.254,"lo1":-89.0895,"lo2":-89.0444,"dy":0.0017,"dx":0.0017,"nx":28,"ny":28,"refTime":"2026-02-16T03:00:00:Z","depth":0,"parameterNumber":2,"parameterNumberName":"U-component_of_WINDS"},"data":[0,0,0,0,0,0,0,0,0,0,0,0,0,0,0,0,0,0,0,0,0,0,0,0,0,0,0,0,0,0,0,0,0,0,0,0,0,0,0,0,0,0,0,0,0,0,0,0,0,0,0,0,0,0,0,0,0,0,-2.087,-2.087,0,-2.0849,-2.0848,-2.0848,-2.0769,-2.0767,-2.0766,-2.0764,-2.0743,-2.0744,-2.0746,0,0,0,0,0,0,0,0,0,0,0,0,0,-2.0846,-2.0847,-2.087,-2.087,-2.087,-2.0849,-2.0848,-2.0848,-2.077,-2.0767,-2.0765,-2.0763,-2.0743,-2.0744,-2.0746,0,0,0,0,0,0,0,0,0,0,0,0,0,-2.0844,-2.0847,-2.087,-2.0828,-2.0824,-2.0849,-2.0848,-2.0848,-2.077,-2.0767,-2.0765,-2.0762,-2.0743,-2.0744,-2.0746,-2.081,0,0,-2.0751,-2.0752,0,0,0,0,0,0,0,0,-2.0844,-2.0845,-2.0834,-2.0831,-2.0826,-2.0809,-2.0832,-2.0835,-2.0771,-2.0791,-2.0764,-2.0761,-2.0767,-2.0767,-2.0769,-2.0809,-2.0808,-2.0751,-2.0752,-2.0753,-2.0753,0,0,0,0,0,0,0,-2.0844,-2.0845,-2.0862,-2.0834,-2.083,-2.0811,-2.0808,-2.0832,-2.0794,-2.0789,-2.0783,-2.0781,-2.0765,-2.0767,-2.0768,-2.0808,-2.0751,-2.0753,-2.0754,-2.0754,-2.0902,-2.0905,0,0,0,0,0,0,-2.085,-2.0846,-2.0862,-2.0861,-2.0829,-2.0814,-2.081,-2.0817,-2.0794,-2.0788,-2.0784,-2.0778,-2.0766,-2.0766,-2.0767,-2.0841,-2.0753,-2.0755,-2.0755,-2.0899,-2.0903,-2.0906,0,0,0,0,0,0,-2.085,-2.0852,-2.0863,-2.0852,-2.0852,-2.0817,-2.0826,-2.0818,-2.0821,-2.079,-2.0783,-2.0793,-2.0764,-2.0764,-2.08,-2.0839,-2.0755,-2.0757,-2.0896,-2.09,-2.0904,-2.0991,0,0,0,0,0,0,-2.085,-2.0853,-2.0876,-2.0853,-2.0853,-2.0896,-2.0828,-2.082,-2.0824,-2.0816,-2.0797,-2.0792,-2.0762,-2.0798,-2.0802,-2.084,-2.0758,-2.0892,-2.0898,-2.0903,-2.0984,-2.0997,-2.1009,0,0,0,0,0,-2.0849,-2.0901,-2.0878,-2.088,-2.0881,-2.0899,-2.0899,-2.0863,-2.0827,-2.0851,-2.0831,-2.0792,-2.0835,-2.0803,-2.0806,-2.0846,-2.0889,-2.0896,-2.0902,-2.0979,-2.0995,-2.1008,0,0,0,0,0,0,-2.093,-2.0897,-2.0871,-2.0917,-2.0911,-2.0885,-2.0914,-2.0881,-2.0885,-2.0878,-2.0834,-2.083,-2.0873,-2.0863,-2.0827,-2.0907,-2.0856,-2.0863,-2.0912,-2.0927,-2.094,-2.0941,-2.076,0,0,0,0,0,-2.0953,-2.0969,-2.094,-2.0984,-2.0983,-2.0949,-2.0955,-2.0929,-2.0921,-2.0918,-2.0901,-2.0896,-2.0909,-2.0917,-2.0927,-2.0983,-2.0978,-2.1012,-2.1024,-2.1034,-2.1041,-2.1071,-2.1086,-2.0927,-2.0927,-2.0927,0,0,-2.1001,-2.0985,-2.0998,-2.1,-2.0992,-2.1011,-2.0947,-2.097,-2.0984,-2.0922,-2.0954,-2.0943,-2.0934,-2.098,-2.1,-2.0973,-2.1084,-2.1043,-2.1051,-2.1052,-2.108,-2.1095,-2.1108,-2.0932,-2.0931,-2.093,0,0,-2.1098,-2.1087,-2.1123,-2.1117,-2.1106,-2.1084,-2.1093,-2.1073,-2.1062,-2.1095,-2.1049,-2.1066,-2.1087,-2.1083,-2.1084,-2.1183,-2.1147,-2.1187,-2.1251,-2.1281,-2.1294,-2.1305,-2.134,-2.1354,-2.1194,-2.1195,-2.1195,0,-2.1159,-2.1184,-2.1146,-2.1171,-2.1174,-2.1119,-2.1156,-2.1152,-2.1146,-2.1149,-2.1119,-2.1147,-2.1137,-2.1182,-2.1207,-2.1209,-2.1218,-2.1189,-2.1295,-2.1306,-2.1315,-2.1349,-2.1362,-2.12,-2.1199,-2.1198,-2.1198,0,-2.1261,-2.128,-2.131,-2.1305,-2.1311,-2.1342,-2.1309,-2.132,-2.1294,-2.1275,-2.131,-2.1297,-2.1303,-2.1312,-2.1286,-2.1355,-2.1338,-2.1303,-2.125,-2.1336,-2.1367,-2.1379,-2.1207,-2.1205,-2.1203,-2.1202,0,0,-2.1406,-2.1381,-2.1392,-2.139,-2.1376,-2.139,-2.142,-2.1426,-2.1437,-2.1435,-2.1459,-2.148,-2.1447,-2.1449,-2.1422,-2.1448,-2.1528,-2.1409,-2.1408,-2.1432,-2.1604,-2.1631,-2.1646,-2.1505,-2.1507,-2.1509,-2.1605,0,-2.1498,-2.1546,-2.1513,-2.1567,-2.1585,-2.1535,-2.1561,-2.1555,-2.1539,-2.1553,-2.1535,-2.1551,-2.1506,-2.1507,-2.1531,-2.1513,-2.1562,-2.1506,-2.1528,-2.1529,-2.1531,-2.1662,-2.169,-2.1781,-2.1617,-2.1619,-2.162,0,-2.1612,-2.1616,-2.1672,-2.1655,-2.1661,-2.1685,-2.1689,-2.1702,-2.1696,-2.1683,-2.1686,-2.1653,-2.1682,-2.163,-2.167,-2.1633,-2.164,-2.1634,-2.1636,-2.1637,-2.1579,-2.1667,-2.1809,-2.1823,-2.1639,-2.1637,-2.1636,0,-2.1713,-2.1732,-2.1768,-2.1768,-2.1749,-2.1767,-2.1761,-2.1752,-2.1758,-2.1762,-2.1766,-2.1774,-2.1778,-2.1785,-2.1756,-2.1721,-2.1801,-2.1746,-2.1791,-2.1792,-2.1809,-2.1809,-2.1956,-2.1814,-2.1814,-2.1814,-2.1814,0,-2.182,-2.1856,-2.1813,-2.1836,-2.1876,-2.1838,-2.1879,-2.1867,-2.186,-2.188,-2.1837,-2.1857,-2.1817,-2.1833,-2.181,-2.1848,-2.185,-2.1841,-2.1834,-2.1844,-2.1846,-2.1848,-2.1841,-2.1818,-2.1817,-2.1816,-2.1815,0,-2.1939,-2.1912,-2.1948,-2.1928,-2.1924,-2.1954,-2.1938,-2.1958,-2.194,-2.1966,-2.197,-2.1942,-2.1959,-2.1931,-2.1944,-2.1929,-2.1981,-2.1965,-2.1983,-2.1978,-2.2025,-2.2021,-2.2179,-2.2198,-2.2044,-2.2046,-2.2047,0,-2.2008,-2.2035,-2.2019,-2.2029,-2.2025,-2.2042,-2.2048,-2.2013,-2.2022,-2.2018,-2.204,-2.2053,-2.2062,-2.2092,-2.2073,-2.2084,-2.2067,-2.2122,-2.2069,-2.2079,-2.2069,-2.2068,-2.2071,-2.2133,-2.2135,-2.2136,-2.2137,0,-2.2135,-2.2121,-2.2132,-2.2139,-2.2149,-2.2153,-2.2154,-2.2165,-2.2128,-2.214,-2.2157,-2.2164,-2.2179,-2.2193,-2.2199,-2.2193,-2.216,-2.2155,-2.2166,-2.2176,-2.2186,-2.2182,-2.2013,-2.2151,-2.215,-2.2149,-2.2148,-2.2147,-2.2232,-2.2254,-2.2246,-2.2261,-2.2258,-2.226,-2.2279,-2.2264,-2.2277,-2.2286,-2.2265,-2.2287,-2.2282,-2.2287,-2.2285,-2.2302,-2.2278,-2.2294,-2.2298,-2.2303,-2.231,-2.2184,-2.2303,-2.2303,-2.2303,-2.2302,-2.2302,0,-2.2357,-2.235,-2.2364,-2.2366,-2.2378,-2.2346,-2.2346,-2.2358,-2.2379,-2.2376,-2.2386,-2.2407,-2.2421,-2.2404,-2.2415,-2.2433,-2.2418,-2.2437,-2.2435,-2.2435,-2.2331,-2.232,-2.2449,-2.2449,-2.2449,-2.2449,-2.2449,-2.2449,-2.2423,-2.2459,-2.2445,-2.248,-2.2472,-2.2494,-2.2497,-2.2499,-2.2497,-2.2522,-2.2534,-2.2523,-2.2515,-2.2526,-2.2538,-2.2533,-2.2539,-2.2564,-2.2553,-2.2456,-2.2442,-2.2428,-2.2418,-2.2565,-2.2566,-2.2656,-2.2657,-2.2657]},{"header":{"parameterUnit":"m.s-1","parameterCategory":1,"la1":30.2991,"la2":30.254,"lo1":-89.0895,"lo2":-89.0444,"dy":0.0017,"dx":0.0017,"nx":28,"ny":28,"refTime":"2026-02-16T03:00:00:Z","depth":0,"parameterNumber":3,"parameterNumberName":"V-component_of_WINDS"},"data":[0,0,0,0,0,0,0,0,0,0,0,0,0,0,0,0,0,0,0,0,0,0,0,0,0,0,0,0,0,0,0,0,0,0,0,0,0,0,0,0,0,0,0,0,0,0,0,0,0,0,0,0,0,0,0,0,0,0,2.1995,2.1995,0,2.2042,2.2043,2.2043,2.2115,2.2117,2.2118,2.2119,2.2165,2.2165,2.2165,0,0,0,0,0,0,0,0,0,0,0,0,0,2.1965,2.1965,2.1995,2.1995,2.1996,2.2042,2.2043,2.2043,2.2115,2.2117,2.2118,2.212,2.2165,2.2165,2.2165,0,0,0,0,0,0,0,0,0,0,0,0,0,2.1991,2.1965,2.1995,2.2037,2.2042,2.2042,2.2043,2.2044,2.2115,2.2117,2.2119,2.2121,2.2165,2.2165,2.2165,2.2127,0,0,2.2165,2.2165,0,0,0,0,0,0,0,0,2.199,2.1992,2.203,2.2034,2.2039,2.2075,2.2049,2.2071,2.2114,2.2087,2.2119,2.2122,2.2133,2.2136,2.2141,2.2129,2.2131,2.2165,2.2165,2.2165,2.2165,0,0,0,0,0,0,0,2.1988,2.1991,2.2013,2.2031,2.2036,2.2054,2.206,2.2054,2.2099,2.209,2.2095,2.21,2.2136,2.2141,2.2142,2.2131,2.2165,2.2165,2.2165,2.2165,2.2092,2.209,0,0,0,0,0,0,2.198,2.1989,2.2012,2.2015,2.2019,2.2053,2.2059,2.2061,2.2099,2.2107,2.2098,2.2103,2.214,2.2142,2.2144,2.2103,2.2165,2.2165,2.2165,2.2094,2.2091,2.2089,0,0,0,0,0,0,2.1979,2.1981,2.201,2.2003,2.2008,2.2051,2.2053,2.2061,2.2066,2.2105,2.2114,2.2094,2.2141,2.2144,2.2131,2.2105,2.2165,2.2165,2.2096,2.2093,2.209,2.2019,0,0,0,0,0,0,2.1978,2.198,2.1967,2.2002,2.2008,2.1996,2.2051,2.2061,2.2066,2.2073,2.2104,2.2111,2.2143,2.2131,2.2131,2.2107,2.2165,2.2098,2.2094,2.2091,2.2024,2.2014,2.2005,0,0,0,0,0,2.1976,2.1944,2.1966,2.1968,2.1992,2.1995,2.1998,2.2036,2.2064,2.205,2.2076,2.211,2.2108,2.2129,2.213,2.2105,2.21,2.2096,2.2091,2.2028,2.2016,2.2006,0,0,0,0,0,0,2.1903,2.1949,2.1974,2.1952,2.1969,2.2007,2.1991,2.2022,2.2031,2.2037,2.2083,2.2089,2.207,2.2086,2.2108,2.207,2.2109,2.2105,2.2061,2.205,2.2041,2.2038,2.2165,0,0,0,0,0,2.1884,2.1883,2.1923,2.19,2.1908,2.1947,2.195,2.1978,2.1997,2.2004,2.2029,2.2045,2.2049,2.205,2.2055,2.2026,2.2034,2.2009,2.2,2.1992,2.1988,2.1975,2.1965,2.2074,2.2074,2.2074,0,0,2.1845,2.1871,2.1867,2.1886,2.1903,2.19,2.1953,2.1948,2.1947,2.2003,2.1993,2.2011,2.2033,2.2012,2.2004,2.2025,2.196,2.1987,2.198,2.1981,2.197,2.1959,2.195,2.2071,2.2072,2.2072,0,0,2.1774,2.1793,2.1776,2.1792,2.1817,2.1844,2.1839,2.1873,2.1888,2.1878,2.1921,2.1919,2.1924,2.1938,2.1945,2.188,2.1912,2.188,2.1832,2.1819,2.1811,2.1803,2.1781,2.1772,2.1875,2.1875,2.1875,0,2.1723,2.1722,2.1763,2.1756,2.1764,2.1816,2.18,2.1812,2.1837,2.184,2.1863,2.1871,2.1889,2.1872,2.1857,2.186,2.1857,2.1877,2.1809,2.1802,2.1795,2.1775,2.1766,2.1871,2.1872,2.1872,2.1872,0,2.1658,2.1657,2.164,2.1664,2.1669,2.1657,2.1697,2.1697,2.1724,2.1749,2.1739,2.1762,2.1773,2.1771,2.1797,2.1759,2.1771,2.18,2.1841,2.178,2.1762,2.1754,2.1866,2.1867,2.1868,2.1869,0,0,2.1542,2.159,2.1583,2.1595,2.1626,2.1626,2.1616,2.1628,2.1628,2.1643,2.1636,2.1639,2.1667,2.1675,2.1703,2.1691,2.164,2.1723,2.1724,2.1707,2.16,2.1579,2.1569,2.1661,2.1659,2.1658,2.1599,0,2.1478,2.1466,2.1503,2.1481,2.1481,2.153,2.1522,2.154,2.1562,2.1564,2.1589,2.1591,2.1626,2.1632,2.1622,2.1648,2.1619,2.1652,2.1655,2.1655,2.165,2.1559,2.1536,2.1479,2.1591,2.159,2.1589,0,2.1402,2.1415,2.1393,2.1426,2.1427,2.1419,2.1434,2.1436,2.1457,2.1474,2.1484,2.1517,2.1509,2.1547,2.1538,2.156,2.1563,2.1576,2.1575,2.1577,2.1619,2.156,2.1461,2.1453,2.1578,2.1579,2.158,0,2.1322,2.1333,2.1322,2.133,2.1368,2.1362,2.1377,2.14,2.1406,2.1418,2.1422,2.1432,2.1438,2.1445,2.148,2.1505,2.1467,2.1508,2.1481,2.148,2.1472,2.1473,2.1374,2.1472,2.1472,2.1472,2.1472,0,2.1247,2.1232,2.1286,2.1279,2.1264,2.1307,2.129,2.131,2.1331,2.1328,2.1371,2.1368,2.1413,2.1415,2.1442,2.1431,2.1433,2.1446,2.1454,2.1443,2.1442,2.1447,2.1452,2.147,2.147,2.1471,2.1471,0,2.1156,2.1191,2.1182,2.1219,2.1228,2.1216,2.1247,2.1242,2.1267,2.1264,2.1265,2.1304,2.1309,2.1344,2.1355,2.1374,2.1353,2.1367,2.1346,2.1351,2.1324,2.1326,2.1226,2.1215,2.1318,2.1317,2.1316,0,2.1107,2.1096,2.1133,2.1135,2.1149,2.1151,2.1157,2.1198,2.1202,2.1226,2.1218,2.1226,2.1235,2.124,2.1269,2.1278,2.1294,2.1258,2.1295,2.1286,2.1295,2.1296,2.1295,2.125,2.1249,2.1248,2.1247,0,2.1016,2.1034,2.1042,2.1055,2.1061,2.1073,2.1088,2.1087,2.1133,2.1135,2.1141,2.1148,2.116,2.1168,2.1182,2.1198,2.123,2.1235,2.1229,2.1219,2.1208,2.1215,2.1326,2.1237,2.1238,2.1239,2.1239,2.124,2.0945,2.0939,2.0964,2.0971,2.0987,2.1,2.0997,2.1022,2.1028,2.1043,2.1066,2.1068,2.109,2.1113,2.1126,2.1128,2.1147,2.1139,2.1137,2.1135,2.113,2.1206,2.113,2.1131,2.1131,2.1131,2.1132,0,2.0859,2.0877,2.0883,2.0903,2.0908,2.0939,2.0957,2.0959,2.0961,2.0979,2.0987,2.0994,2.1001,2.1031,2.1041,2.1038,2.1053,2.1039,2.104,2.1044,2.1111,2.1116,2.1027,2.1027,2.1027,2.1027,2.1027,2.1027,2.0814,2.0806,2.0827,2.0826,2.0845,2.0849,2.0856,2.0869,2.0884,2.0889,2.0896,2.0916,2.0939,2.0951,2.096,2.0968,2.0971,2.0952,2.0966,2.1029,2.1039,2.1048,2.1053,2.0952,2.0952,2.0898,2.0898,2.0897]}]]